Flag for Norway Weather past 2 weeks in Sandefjord, Norway

Now
63 °F

Fog.


Feels Like: 63 °F
Forecast: 64 / 75 °F
Wind: 3 mph from North

Location: Torp

Current Time: Jul 28, 2014 at 7:32:56 AM

Latest Report: Jul 28, 2014 at 6:50 AM


Visibility: 3 mi

Pressure: 29.95 "Hg

Humidity: 100%

Dew point: 63 °F

Location of SandefjordLocation

Historic Weather in Sandefjord — Graph

°F

Sandefjord temperature yesterday

Maximum temperature yesterday: 77 °F (at 12:50 PM)
Minimum temperature yesterday: 63 °F (at 3:50 AM)
Average temperature yesterday: 69 °F

Past Weeks' High & Low Weather Summary

 TemperatureHumidityPressure
High90 °F (Jul 23, 4:20 PM)100% (Jul 14, 6:50 AM)30.30 "Hg (Jul 14, 6:50 AM)
Low52 °F (Jul 18, 4:50 AM)31% (Jul 23, 4:50 PM)29.62 "Hg (Jul 13, 8:50 PM)
Average69 °F67%30.03 "Hg
* Reported Jul 13 6:20 AM — Jul 28 6:20 AM, Sandefjord, Weather by CustomWeather, © 2014

Note: Actual official high and low records may vary slightly from our data, if they occured in-between our weather recording intervals... More about our weather records

Advertising

Sandefjord weather history for previous 24 hours

 ConditionsComfort  
Time TempWeatherWind HumidityBarometerVisibility
6:20 AM
Jul 28
63 °FFog.2 mph94%29.95 "Hg3 mi
5:50 AM63 °FFog.5 mph94%29.95 "HgN/A
5:20 AM61 °FFog.3 mph100%29.95 "Hg2 mi
4:20 AM61 °FFog.5 mph94%29.92 "Hg2 mi
3:50 AM61 °FFog.2 mph100%29.92 "Hg3 mi
3:20 AM61 °FFog.3 mph100%29.92 "Hg2 mi
2:50 AM61 °FFog.3 mph94%29.92 "Hg3 mi
2:20 AM61 °FFog.3 mph100%29.92 "Hg4 mi
1:50 AM61 °FFog.3 mph100%29.92 "Hg2 mi
1:20 AM63 °FPassing clouds.2 mph100%29.95 "HgN/A
12:50 AM63 °FPassing clouds.3 mph94%29.95 "Hg4 mi
12:20 AM64 °FFog.No wind94%29.92 "Hg1 mi
11:50 PM
Jul 27
64 °FPassing clouds.No wind94%29.92 "HgN/A
11:20 PM64 °FThundershowers. Passing clouds.No wind94%29.92 "HgN/A
10:50 PM66 °FScattered clouds.No wind88%29.95 "HgN/A
10:20 PM66 °FPassing clouds.No wind88%29.92 "HgN/A
9:50 PM68 °FScattered clouds.No wind83%29.92 "HgN/A
9:20 PM70 °FScattered clouds.1 mph78%29.92 "HgN/A
8:50 PM70 °FPassing clouds.6 mph78%29.92 "HgN/A
8:20 PM70 °FScattered clouds.6 mph78%29.92 "HgN/A
7:50 PM72 °FScattered clouds.6 mph73%29.92 "HgN/A
7:20 PM72 °FPassing clouds.8 mph73%29.92 "HgN/A
6:50 PM73 °FPassing clouds.8 mph69%29.92 "HgN/A
6:20 PM73 °FScattered clouds.9 mph69%29.92 "HgN/A
5:50 PM75 °FPassing clouds.9 mph61%29.92 "HgN/A
5:20 PM77 °FScattered clouds.7 mph54%29.92 "HgN/A
4:50 PM77 °FScattered clouds.8 mph57%29.92 "HgN/A
4:20 PM77 °FScattered clouds.8 mph61%29.92 "HgN/A
3:50 PM75 °FScattered clouds.7 mph61%29.92 "HgN/A
3:20 PM75 °FScattered clouds.8 mph65%29.92 "HgN/A
2:50 PM77 °FScattered clouds.10 mph57%29.95 "HgN/A
2:20 PM75 °FScattered clouds.15 mph61%29.95 "HgN/A
1:50 PM75 °FScattered clouds.9 mph57%29.95 "HgN/A
1:20 PM77 °FScattered clouds.6 mph57%29.95 "HgN/A
12:50 PM77 °FBroken clouds.1 mph57%29.98 "HgN/A
12:20 PM73 °FScattered clouds.2 mph69%29.98 "HgN/A
11:50 AM73 °FBroken clouds.5 mph65%29.98 "HgN/A
11:20 AM70 °FBroken clouds.5 mph83%29.98 "HgN/A
10:50 AM70 °FPartly sunny.6 mph83%29.98 "HgN/A
10:20 AM70 °FScattered clouds.7 mph78%29.98 "HgN/A
9:50 AM70 °FScattered clouds.6 mph83%29.98 "HgN/A
9:20 AM68 °FScattered clouds.7 mph88%29.98 "HgN/A
8:50 AM66 °FSunny.6 mph94%29.98 "Hg10 mi
8:20 AM66 °FSunny.7 mph94%29.98 "Hg10 mi
7:50 AM64 °FSunny.7 mph94%29.98 "Hg10 mi
7:20 AM64 °FScattered clouds.6 mph94%30.01 "HgN/A
Weather by CustomWeather, © 2014

See weather overviewHow to use our weather pages